Location: Bush Observatory
(40.2653°N, 94.3194°W)
Time: 10:59:05
(UTC-05:00)

JAS-2 - Visible Passes

Search period start: 20 September 2014 00:00
Search period end: 30 September 2014 00:00
Orbit: 800 x 1322 km, 98.5° (Epoch: 18 September)

Date Brightness Start Highest point End Pass type
(mag) Time Alt. Az. Time Alt. Az. Time Alt. Az.
20 Sep 11.4 06:29:41 10° NNE 06:35:21 38° E 06:41:39 10° SSE visible
21 Sep 12.7 05:36:58 10° ENE 05:39:59 14° E 05:43:08 10° ESE visible
22 Sep 11.5 06:24:46 10° NNE 06:30:28 36° E 06:36:47 10° SSE visible
23 Sep 12.8 05:32:19 10° ENE 05:35:05 13° E 05:37:57 10° ESE visible
24 Sep 11.7 06:19:52 10° NNE 06:25:36 34° E 06:31:55 10° SSE visible
25 Sep 12.9 05:27:43 10° ENE 05:30:11 12° E 05:32:43 10° ESE visible
26 Sep 11.8 06:14:59 10° NE 06:20:44 32° E 06:27:03 10° SSE visible
26 Sep 12.8 20:02:21 10° W 20:03:14 10° W 20:04:07 10° WNW visible
27 Sep 12.9 05:23:13 10° ENE 05:25:17 11° E 05:27:24 10° ESE visible
28 Sep 11.9 06:10:07 10° NE 06:15:53 31° E 06:22:10 10° SSE visible
28 Sep 12.7 19:56:27 10° WSW 19:58:14 12° W 20:00:02 10° WNW visible
29 Sep 13.0 05:18:53 10° ENE 05:20:23 11° E 05:21:55 10° E visible
